TimeEDT,TemperatureF,Dew PointF,Humidity,Sea Level PressureIn,VisibilityMPH,Wind Direction,Wind SpeedMPH,Gust SpeedMPH,PrecipitationIn,Events,Conditions,WindDirDegrees,DateUTC
12:54 AM,70.0,66.9,90,30.14,10.0,Calm,Calm,-,N/A,,Overcast,0,2014-07-23 04:54:00
1:54 AM,68.0,66.9,96,30.12,10.0,Calm,Calm,-,N/A,,Partly Cloudy,0,2014-07-23 05:54:00
2:08 AM,68.0,66.9,96,30.19,10.0,Calm,Calm,-,N/A,,Mostly Cloudy,0,2014-07-23 06:08:00
2:21 AM,68.0,66.9,96,30.18,1.8,Calm,Calm,-,N/A,,Overcast,0,2014-07-23 06:21:00
2:27 AM,68.0,66.9,96,30.18,0.8,Calm,Calm,-,N/A,,Overcast,0,2014-07-23 06:27:00
2:34 AM,68.0,66.9,96,30.17,0.5,Calm,Calm,-,N/A,Fog,Fog,0,2014-07-23 06:34:00
2:54 AM,68.0,66.9,96,30.09,0.8,Calm,Calm,-,N/A,,Mist,0,2014-07-23 06:54:00
3:08 AM,68.0,66.9,96,30.16,1.2,Calm,Calm,-,N/A,,Overcast,0,2014-07-23 07:08:00
3:18 AM,68.0,66.9,96,30.16,0.5,Calm,Calm,-,N/A,Fog,Fog,0,2014-07-23 07:18:00
3:26 AM,68.0,66.9,96,30.16,0.2,Calm,Calm,-,N/A,Fog,Fog,0,2014-07-23 07:26:00
3:54 AM,68.0,66.9,96,30.08,1.2,Calm,Calm,-,N/A,,Overcast,0,2014-07-23 07:54:00
3:56 AM,68.0,66.9,96,30.15,3.0,South,3.5,-,N/A,,Overcast,190,2014-07-23 07:56:00
4:01 AM,68.0,66.9,96,30.15,1.5,South,3.5,-,N/A,,Overcast,190,2014-07-23 08:01:00
4:04 AM,68.0,66.9,96,30.15,0.8,Calm,Calm,-,N/A,,Mist,0,2014-07-23 08:04:00
4:14 AM,68.0,66.9,96,30.15,0.5,Calm,Calm,-,N/A,Fog,Fog,0,2014-07-23 08:14:00
4:34 AM,68.0,66.9,96,30.16,0.5,Calm,Calm,-,N/A,Fog,Fog,0,2014-07-23 08:34:00
4:54 AM,66.9,66.0,97,30.09,0.2,NW,3.5,-,N/A,Fog,Fog,320,2014-07-23 08:54:00
5:08 AM,66.9,66.0,97,30.16,0.5,Calm,Calm,-,N/A,Fog,Fog,0,2014-07-23 09:08:00
5:32 AM,66.9,66.0,97,30.17,1.2,Calm,Calm,-,N/A,,Overcast,0,2014-07-23 09:32:00
5:54 AM,66.9,66.0,97,30.09,0.8,WSW,3.5,-,N/A,,Overcast,240,2014-07-23 09:54:00
6:02 AM,66.9,66.0,97,30.17,0.5,WSW,3.5,-,N/A,Fog,Fog,240,2014-07-23 10:02:00
6:21 AM,66.9,66.0,97,30.17,0.2,Calm,Calm,-,N/A,Fog,Fog,0,2014-07-23 10:21:00
6:54 AM,66.9,66.0,97,30.10,0.2,Calm,Calm,-,N/A,Fog,Fog,0,2014-07-23 10:54:00
6:56 AM,66.9,66.0,97,30.17,0.5,Calm,Calm,-,N/A,Fog,Fog,0,2014-07-23 10:56:00
7:07 AM,66.9,66.0,97,30.18,1.5,NNW,3.5,-,N/A,,Overcast,330,2014-07-23 11:07:00
7:13 AM,66.9,66.0,97,30.18,0.2,NNW,4.6,-,N/A,Fog,Fog,340,2014-07-23 11:13:00
7:54 AM,66.9,66.0,97,30.12,0.5,Calm,Calm,-,N/A,Fog,Fog,0,2014-07-23 11:54:00
8:11 AM,66.9,66.0,97,30.19,1.0,NNW,4.6,-,N/A,Fog,Fog,330,2014-07-23 12:11:00
8:34 AM,66.9,64.9,93,30.19,1.0,NNW,6.9,-,N/A,,Mostly Cloudy,330,2014-07-23 12:34:00
8:54 AM,69.1,64.9,87,30.12,1.0,NNW,6.9,-,N/A,,Mostly Cloudy,340,2014-07-23 12:54:00
9:01 AM,69.1,64.9,87,30.19,10.0,North,4.6,-,N/A,,Mostly Cloudy,360,2014-07-23 13:01:00
9:09 AM,69.1,66.0,90,30.19,2.0,NW,5.8,-,N/A,,Mostly Cloudy,310,2014-07-23 13:09:00
9:44 AM,71.1,66.0,84,30.19,10.0,Variable,3.5,-,N/A,,Mostly Cloudy,0,2014-07-23 13:44:00
9:54 AM,71.1,66.0,84,30.12,10.0,NNW,4.6,-,N/A,,Mostly Cloudy,340,2014-07-23 13:54:00
10:01 AM,72.0,66.0,81,30.19,10.0,NW,3.5,-,N/A,,Overcast,320,2014-07-23 14:01:00
10:10 AM,73.0,66.0,79,30.18,10.0,North,6.9,-,N/A,,Mostly Cloudy,350,2014-07-23 14:10:00
10:54 AM,75.9,66.9,74,30.10,10.0,NNW,8.1,-,N/A,,Mostly Cloudy,340,2014-07-23 14:54:00
11:54 AM,78.1,66.9,68,30.08,10.0,North,8.1,-,N/A,,Overcast,350,2014-07-23 15:54:00
12:54 PM,81.0,66.0,60,30.06,10.0,Variable,5.8,-,N/A,,Clear,0,2014-07-23 16:54:00
1:54 PM,81.0,69.1,67,30.04,10.0,NW,13.8,-,N/A,,Mostly Cloudy,320,2014-07-23 17:54:00
2:54 PM,78.1,66.0,66,30.04,10.0,WNW,6.9,-,N/A,,Overcast,300,2014-07-23 18:54:00
3:22 PM,77.0,66.0,69,30.12,10.0,NE,3.5,-,0.00,Thunderstorm,Overcast,40,2014-07-23 19:22:00
3:41 PM,75.9,66.0,71,30.12,10.0,NNE,8.1,-,0.00,,Overcast,30,2014-07-23 19:41:00
3:54 PM,75.0,66.9,76,30.04,10.0,Variable,5.8,-,0.00,,Overcast,0,2014-07-23 19:54:00
4:14 PM,73.9,66.0,76,30.11,10.0,Variable,6.9,-,N/A,,Mostly Cloudy,0,2014-07-23 20:14:00
4:54 PM,75.9,66.9,74,30.01,10.0,East,4.6,-,N/A,,Mostly Cloudy,90,2014-07-23 20:54:00
5:54 PM,77.0,68.0,74,30.00,10.0,NNW,9.2,-,N/A,,Overcast,340,2014-07-23 21:54:00
6:54 PM,75.0,66.9,76,30.00,10.0,NNW,9.2,-,N/A,,Overcast,330,2014-07-23 22:54:00
7:54 PM,75.0,66.9,76,29.99,10.0,Calm,Calm,-,0.00,,Scattered Clouds,0,2014-07-23 23:54:00
8:54 PM,73.0,69.1,87,29.98,10.0,Calm,Calm,-,0.00,Rain,Light Rain,0,2014-07-24 00:54:00
9:54 PM,73.0,69.1,87,29.97,10.0,Calm,Calm,-,0.00,,Mostly Cloudy,0,2014-07-24 01:54:00
10:54 PM,71.1,68.0,90,29.98,10.0,NNW,9.2,-,N/A,,Overcast,340,2014-07-24 02:54:00
11:54 PM,70.0,66.9,90,29.97,10.0,North,5.8,-,N/A,,Clear,350,2014-07-24 03:54:00